Location: Milevsko
(49.4500°N, 14.3670°E)
Time: 13:53:21
(UTC+02:00)

ISS - Pass Details

Date: 16 September 2021
Orbit: 417 x 422 km, 51.6° (Epoch: 28 September)

Event Time Altitude Azimuth Distance (km) Brightness Sun altitude
Rises 20:47:15 0° 214° (SW) 2,353 0.2 -15.6°
Reaches altitude 10° 20:49:33 10° 201° (SSW) 1,495 -1.0 -16.0°
Enters shadow 20:51:21 21° 173° (S) 989 -2.2 -16.2°
